Weather History for Waukegan, IL

Change the Weather History Date:

Tuesday, February 5, 2013

  Actual Average Record
Temperature  
Mean Temperature 16 °F -  
Max Temperature 29 °F 31 °F 51 °F (2005)
Min Temperature 2 °F 16 °F -12 °F (2007)
Degree Days  
Heating Degree Days 49 42  
Month to date heating degree days 258 210  
Since 1 July heating degree days 3718 4061  
Cooling Degree Days 0 0  
Month to date cooling degree days 0 0  
Year to date cooling degree days 0 0  
Moisture  
Dew Point 17 °F    
Average Humidity 76    
Maximum Humidity 86    
Minimum Humidity 66    
Precipitation  
Precipitation T in 0.05 in 0.13 in (2008)
Month to date precipitation 0.02 0.25  
Year to date precipitation 1.30 1.64  
Sea Level Pressure  
Sea Level Pressure 29.89 in    
Wind  
Wind Speed 7 mph (WSW)    
Max Wind Speed 20 mph    
Max Gust Speed 29 mph    
Visibility 5 miles    
Events Fog , Snow    
T = Trace of Precipitation, MM = Missing Value Source: NWS Daily Summary

Daily Weather History Graph

Daily Weather History Graph

Search for Another Location

Airport:

Trip Planner

Search our weather history database for the weather conditions in past years. The results will help you decide how hot, cold, wet, or windy it might be!

Date:

Astronomy

Feb. 05, 2013 Rise Set
Actual Time 7:00 AM CST 5:11 PM CST
Civil Twilight 6:31 AM CST 5:40 PM CST
Nautical Twilight 5:57 AM CST 6:13 PM CST
Astronomical Twilight 5:24 AM CST 6:46 PM CST
Moon 2:44 AM CST (2/5) 12:25 PM CST (2/5)
Length of Visible Light 11h 09m
Length of Day
10h 10m
Waning Crescent, 26% of the Moon is Illuminated
Feb 5
Waning Crescent
Feb 10
New
Feb 17
First Quarter
Feb 25
Full
Mar 4
Last Quarter

Hourly Weather History & Observations

Time (CST) Temp. Windchill Dew Point Humidity Pressure Visibility Wind Dir Wind Speed Gust Speed Precip Events Conditions
12:52 AM 10.0 °F 3.6 °F 1.9 °F 70% 29.98 in 10.0 mi West 3.5 mph - N/A   Clear
1:52 AM 8.1 °F - -0.0 °F 70% 29.97 in 10.0 mi Calm Calm - N/A   Clear
2:52 AM 6.1 °F -0.9 °F 1.0 °F 80% 29.95 in 10.0 mi SW 3.5 mph - N/A   Clear
3:52 AM 3.9 °F -3.4 °F -0.9 °F 80% 29.94 in 10.0 mi WSW 3.5 mph - N/A   Clear
4:52 AM 9.0 °F 2.4 °F 3.0 °F 77% 29.94 in 10.0 mi SW 3.5 mph - N/A   Mostly Cloudy
5:52 AM 12.0 °F 2.7 °F 3.0 °F 67% 29.94 in 10.0 mi SW 5.8 mph - N/A   Overcast
6:41 AM 15.8 °F 5.1 °F 8.6 °F 73% 29.87 in 3.0 mi SSW 8.1 mph - 0.00 in Snow Light Snow
6:50 AM 15.8 °F 7.2 °F 10.4 °F 79% 29.86 in 1.8 mi SSW 5.8 mph - 0.00 in Snow Light Snow
6:52 AM 16.0 °F 6.3 °F 10.0 °F 77% 29.93 in 1.5 mi SSW 6.9 mph - 0.00 in Snow Light Snow
7:34 AM 17.6 °F 5.7 °F 12.2 °F 79% 29.84 in 2.0 mi South 10.4 mph - 0.00 in Snow Light Snow
7:42 AM 17.6 °F 5.7 °F 12.2 °F 79% 29.83 in 4.0 mi South 10.4 mph - 0.00 in   Overcast
7:52 AM 17.1 °F 5.0 °F 14.0 °F 88% 29.89 in 4.0 mi South 10.4 mph - 0.00 in   Overcast
8:52 AM 19.9 °F 8.6 °F 16.0 °F 85% 29.88 in 6.0 mi South 10.4 mph - N/A   Overcast
9:52 AM 23.0 °F 10.6 °F 18.0 °F 81% 29.84 in 6.0 mi South 13.8 mph - N/A   Haze
10:33 AM 24.8 °F 11.1 °F 19.4 °F 80% 29.80 in 7.0 mi SW 18.4 mph 23.0 mph N/A   Overcast
10:52 AM 26.1 °F 14.5 °F 19.0 °F 75% 29.85 in 8.0 mi SW 13.8 mph - N/A   Overcast
11:52 AM 27.0 °F 16.7 °F 19.9 °F 75% 29.84 in 7.0 mi WSW 11.5 mph 21.9 mph N/A   Overcast
12:28 PM 26.6 °F 16.8 °F 19.4 °F 74% 29.77 in 2.0 mi WSW 10.4 mph 18.4 mph 0.00 in Snow Light Snow
12:48 PM 26.6 °F 18.2 °F 21.2 °F 80% 29.78 in 0.5 mi WSW 8.1 mph - 0.00 in Fog , Snow Snow
12:52 PM 26.1 °F 19.4 °F 21.9 °F 84% 29.84 in 0.5 mi Variable 5.8 mph - 0.00 in Fog , Snow Snow
1:16 PM 26.6 °F 22.6 °F 23.0 °F 86% 29.78 in 0.2 mi WSW 3.5 mph - 0.00 in Fog , Snow Snow
1:39 PM 26.6 °F 19.1 °F 23.0 °F 86% 29.78 in 0.5 mi SW 6.9 mph - 0.00 in Fog , Snow Light Snow
1:50 PM 26.6 °F 19.1 °F 23.0 °F 86% 29.78 in 1.0 mi WSW 6.9 mph - 0.00 in Snow Light Snow
1:52 PM 26.1 °F 21.9 °F 23.0 °F 88% 29.84 in 1.0 mi Variable 3.5 mph - 0.00 in Snow Light Snow
2:25 PM 28.4 °F 20.4 °F 23.0 °F 80% 29.79 in 2.5 mi West 8.1 mph - 0.00 in Snow Light Snow
2:44 PM 28.4 °F 20.4 °F 23.0 °F 80% 29.80 in 1.2 mi West 8.1 mph - 0.00 in Snow Light Snow
2:52 PM 28.0 °F 20.8 °F 23.0 °F 81% 29.87 in 2.5 mi West 6.9 mph 17.3 mph 0.00 in Snow Light Snow
3:08 PM 28.4 °F 21.2 °F 23.0 °F 80% 29.82 in 3.0 mi West 6.9 mph - 0.00 in   Haze
3:52 PM 28.0 °F 20.8 °F 23.0 °F 81% 29.89 in 4.0 mi West 6.9 mph - 0.00 in   Haze
4:16 PM 28.4 °F 19.7 °F 23.0 °F 80% 29.84 in 1.8 mi WNW 9.2 mph - 0.00 in Snow Light Snow
4:50 PM 26.6 °F 19.1 °F 23.0 °F 86% 29.86 in 3.0 mi WNW 6.9 mph - 0.00 in   Overcast
4:51 PM 27.0 °F 18.7 °F 23.0 °F 85% 29.93 in 3.0 mi WNW 8.1 mph - 0.00 in   Overcast
5:52 PM 27.0 °F 18.7 °F 21.9 °F 81% 29.95 in 5.0 mi West 8.1 mph - N/A   Haze
6:52 PM 28.0 °F 21.7 °F 21.9 °F 78% 29.99 in 6.0 mi WNW 5.8 mph - N/A   Haze
7:52 PM 28.0 °F 20.8 °F 21.0 °F 75% 30.01 in 7.0 mi WNW 6.9 mph - N/A   Overcast
8:52 PM 28.9 °F 21.1 °F 21.0 °F 72% 30.04 in 7.0 mi NW 8.1 mph - N/A   Overcast
9:52 PM 28.0 °F 21.7 °F 19.9 °F 72% 30.06 in 9.0 mi NNW 5.8 mph - N/A   Overcast
10:52 PM 26.1 °F 16.2 °F 18.0 °F 71% 30.09 in 9.0 mi NNW 10.4 mph - N/A   Overcast
11:52 PM 25.0 °F 18.1 °F 17.1 °F 72% 30.12 in 10.0 mi NW 5.8 mph - N/A   Overcast